• în România
  • Lista ţărilor
  • Pe 7 zile
  • Temperatura apei
  • Hartă satelitară
  • Meteo pe hartă
  • Widget-uri
  • user-avatar
    Intrare

    Meteo pe oră la Nha Trang

    Astăzi, 21 August, Marţi

    Timp Temperatura Precipitaţii Vânt Presiune Umiditate
    00:00 +28°C° 0 mm 2 m/s 744 mmHg 78%
    01:00 +27°C° 0 mm 2 m/s 744 mmHg 78%
    02:00 +27°C° 0 mm 2 m/s 744 mmHg 78%
    03:00 +27°C° 0 mm 2 m/s 744 mmHg 78%
    04:00 +27°C° 0 mm 2 m/s 743 mmHg 78%
    05:00 +28°C° 0 mm 2 m/s 744 mmHg 75%
    06:00 +29°C° 0 mm 2 m/s 744 mmHg 72%
    07:00 +30°C° 0 mm 2 m/s 744 mmHg 69%
    08:00 +32°C° 0 mm 2 m/s 744 mmHg 62%
    09:00 +35°C° 0 mm 2 m/s 744 mmHg 55%
    10:00 +37°C° 0 mm 2 m/s 744 mmHg 47%
    11:00 +38°C° 0 mm 3 m/s 743 mmHg 46%
    12:00 +40°C° 0 mm 4 m/s 743 mmHg 44%
    13:00 +40°C° 0 mm 5 m/s 742 mmHg 42%
    14:00 +39°C° 0,1 mm 5 m/s 742 mmHg 47%
    15:00 +37°C° 0,1 mm 5 m/s 742 mmHg 51%
    16:00 +36°C° 0,1 mm 5 m/s 742 mmHg 55%
    17:00 +34°C° 0,1 mm 5 m/s 742 mmHg 61%
    18:00 +33°C° 0,1 mm 5 m/s 742 mmHg 67%
    19:00 +30°C° 0,1 mm 5 m/s 742 mmHg 73%
    20:00 +29°C° 0,1 mm 4 m/s 743 mmHg 76%
    21:00 +29°C° 0,1 mm 4 m/s 743 mmHg 78%
    22:00 +28°C° 0,1 mm 4 m/s 744 mmHg 80%
    23:00 +28°C° 0 mm 4 m/s 744 mmHg 80%

    Mâine, 22 August, Miercuri

    Timp Temperatura Precipitaţii Vânt Presiune Umiditate
    00:00 +28°C° 0 mm 4 m/s 743 mmHg 80%
    01:00 +28°C° 0 mm 4 m/s 743 mmHg 80%
    02:00 +28°C° 0 mm 4 m/s 743 mmHg 80%
    03:00 +28°C° 0 mm 4 m/s 743 mmHg 79%
    04:00 +28°C° 0 mm 4 m/s 743 mmHg 79%
    05:00 +28°C° 0 mm 4 m/s 743 mmHg 77%
    06:00 +29°C° 0 mm 3 m/s 743 mmHg 74%
    07:00 +30°C° 0 mm 3 m/s 744 mmHg 72%
    08:00 +33°C° 0 mm 3 m/s 744 mmHg 64%
    09:00 +35°C° 0 mm 3 m/s 744 mmHg 56%
    10:00 +37°C° 0 mm 3 m/s 745 mmHg 48%
    11:00 +38°C° 0 mm 4 m/s 744 mmHg 46%
    12:00 +40°C° 0 mm 4 m/s 743 mmHg 44%
    13:00 +41°C° 0 mm 5 m/s 743 mmHg 42%
    14:00 +40°C° 0 mm 5 m/s 743 mmHg 44%
    15:00 +39°C° 0 mm 5 m/s 742 mmHg 47%
    16:00 +37°C° 0 mm 5 m/s 742 mmHg 49%
    17:00 +35°C° 0 mm 5 m/s 742 mmHg 56%
    18:00 +33°C° 0 mm 5 m/s 743 mmHg 63%
    19:00 +32°C° 0 mm 5 m/s 743 mmHg 69%
    20:00 +30°C° 0 mm 5 m/s 744 mmHg 71%
    21:00 +29°C° 0 mm 4 m/s 744 mmHg 73%
    22:00 +29°C° 0 mm 4 m/s 745 mmHg 76%
    23:00 +29°C° 0 mm 4 m/s 745 mmHg 76%

    Poimâine, 23 August, Joi

    Timp Temperatura Precipitaţii Vânt Presiune Umiditate
    00:00 +28°C° 0 mm 4 m/s 744 mmHg 77%
    01:00 +28°C° 0 mm 4 m/s 744 mmHg 78%
    02:00 +28°C° 0 mm 4 m/s 744 mmHg 78%
    03:00 +28°C° 0 mm 4 m/s 744 mmHg 78%
    04:00 +28°C° 0 mm 4 m/s 743 mmHg 78%
    05:00 +28°C° 0 mm 4 m/s 744 mmHg 76%
    06:00 +29°C° 0 mm 4 m/s 744 mmHg 73%
    07:00 +30°C° 0 mm 4 m/s 745 mmHg 71%
    08:00 +33°C° 0 mm 4 m/s 745 mmHg 62%
    09:00 +36°C° 0 mm 4 m/s 745 mmHg 53%
    10:00 +38°C° 0 mm 4 m/s 746 mmHg 44%
    11:00 +40°C° 0 mm 4 m/s 745 mmHg 42%
    12:00 +41°C° 0 mm 5 m/s 744 mmHg 39%
    13:00 +42°C° 0 mm 5 m/s 744 mmHg 37%
    14:00 +41°C° 0,1 mm 6 m/s 743 mmHg 41%
    15:00 +40°C° 0,1 mm 6 m/s 743 mmHg 45%
    16:00 +38°C° 0,1 mm 6 m/s 743 mmHg 49%
    17:00 +35°C° 0 mm 6 m/s 743 mmHg 56%
    18:00 +34°C° 0 mm 6 m/s 744 mmHg 63%
    19:00 +32°C° 0 mm 6 m/s 744 mmHg 70%
    20:00 +30°C° 0 mm 6 m/s 745 mmHg 73%
    21:00 +29°C° 0 mm 5 m/s 746 mmHg 76%
    22:00 +28°C° 0 mm 5 m/s 746 mmHg 79%
    23:00 +28°C° 0 mm 5 m/s 746 mmHg 80%

    24 August, Vineri

    Timp Temperatura Precipitaţii Vânt Presiune Umiditate
    00:00 +28°C° 0 mm 5 m/s 745 mmHg 80%
    01:00 +28°C° 0 mm 5 m/s 745 mmHg 81%
    02:00 +28°C° 0 mm 4 m/s 745 mmHg 80%
    03:00 +27°C° 0 mm 4 m/s 744 mmHg 80%
    04:00 +27°C° 0 mm 4 m/s 744 mmHg 80%
    05:00 +28°C° 0 mm 4 m/s 744 mmHg 76%
    06:00 +29°C° 0 mm 3 m/s 745 mmHg 73%
    07:00 +30°C° 0 mm 3 m/s 745 mmHg 69%
    08:00 +33°C° 0 mm 3 m/s 745 mmHg 60%
    09:00 +36°C° 0 mm 3 m/s 745 mmHg 51%
    10:00 +39°C° 0 mm 3 m/s 745 mmHg 41%
    11:00 +40°C° 0 mm 4 m/s 745 mmHg 40%
    12:00 +41°C° 0 mm 4 m/s 744 mmHg 39%
    13:00 +42°C° 0 mm 5 m/s 743 mmHg 37%
    14:00 +41°C° 0 mm 5 m/s 743 mmHg 40%
    15:00 +40°C° 0 mm 5 m/s 743 mmHg 42%
    16:00 +39°C° 0 mm 5 m/s 742 mmHg 45%
    17:00 +36°C° 0,1 mm 5 m/s 743 mmHg 54%
    18:00 +34°C° 0,1 mm 5 m/s 744 mmHg 63%
    19:00 +30°C° 0,1 mm 5 m/s 745 mmHg 73%
    20:00 +30°C° 0,3 mm 4 m/s 745 mmHg 76%
    21:00 +29°C° 0,3 mm 4 m/s 746 mmHg 78%
    22:00 +29°C° 0,3 mm 4 m/s 746 mmHg 81%
    23:00 +28°C° 0 mm 4 m/s 746 mmHg 81%

    25 August, Sâmbătă

    Timp Temperatura Precipitaţii Vânt Presiune Umiditate
    00:00 +28°C° 0 mm 3 m/s 745 mmHg 81%
    01:00 +28°C° 0 mm 3 m/s 744 mmHg 81%
    02:00 +28°C° 0 mm 3 m/s 744 mmHg 80%
    03:00 +28°C° 0 mm 3 m/s 744 mmHg 80%
    04:00 +27°C° 0 mm 3 m/s 744 mmHg 79%
    05:00 +28°C° 0 mm 3 m/s 744 mmHg 76%
    06:00 +29°C° 0 mm 3 m/s 744 mmHg 73%
    07:00 +30°C° 0 mm 3 m/s 745 mmHg 70%
    08:00 +33°C° 0 mm 3 m/s 745 mmHg 60%
    09:00 +36°C° 0 mm 3 m/s 745 mmHg 51%
    10:00 +39°C° 0 mm 3 m/s 745 mmHg 42%
    11:00 +40°C° 0 mm 4 m/s 744 mmHg 41%
    12:00 +41°C° 0 mm 4 m/s 743 mmHg 40%
    13:00 +41°C° 0 mm 5 m/s 743 mmHg 39%
    14:00 +40°C° 0,1 mm 5 m/s 742 mmHg 43%
    15:00 +39°C° 0,1 mm 5 m/s 742 mmHg 46%
    16:00 +37°C° 0,1 mm 5 m/s 741 mmHg 50%
    17:00 +35°C° 0,1 mm 5 m/s 742 mmHg 58%
    18:00 +33°C° 0,1 mm 5 m/s 743 mmHg 66%
    19:00 +30°C° 0,1 mm 5 m/s 744 mmHg 74%
    20:00 +29°C° 0,3 mm 5 m/s 744 mmHg 77%
    21:00 +29°C° 0,3 mm 4 m/s 744 mmHg 81%
    22:00 +28°C° 0,3 mm 4 m/s 745 mmHg 84%
    23:00 +28°C° 0 mm 3 m/s 744 mmHg 84%

    26 August, Duminică

    Timp Temperatura Precipitaţii Vânt Presiune Umiditate
    00:00 +27°C° 0 mm 3 m/s 744 mmHg 83%
    01:00 +27°C° 0 mm 3 m/s 743 mmHg 83%
    02:00 +27°C° 0 mm 3 m/s 743 mmHg 82%
    03:00 +27°C° 0 mm 3 m/s 743 mmHg 81%
    04:00 +27°C° 0 mm 3 m/s 743 mmHg 80%
    05:00 +28°C° 0 mm 3 m/s 743 mmHg 77%
    06:00 +29°C° 0 mm 3 m/s 744 mmHg 74%
    07:00 +29°C° 0 mm 3 m/s 744 mmHg 71%
    08:00 +33°C° 0 mm 3 m/s 744 mmHg 62%
    09:00 +36°C° 0 mm 3 m/s 744 mmHg 52%
    10:00 +39°C° 0 mm 3 m/s 744 mmHg 43%
    11:00 +40°C° 0 mm 3 m/s 743 mmHg 40%
    12:00 +41°C° 0 mm 4 m/s 743 mmHg 37%
    13:00 +42°C° 0 mm 4 m/s 742 mmHg 35%
    14:00 +41°C° 0,1 mm 5 m/s 742 mmHg 40%
    15:00 +39°C° 0,1 mm 5 m/s 741 mmHg 45%
    16:00 +37°C° 0,1 mm 5 m/s 741 mmHg 50%
    17:00 +35°C° 0,1 mm 5 m/s 742 mmHg 57%
    18:00 +33°C° 0,1 mm 5 m/s 742 mmHg 64%
    19:00 +30°C° 0,1 mm 5 m/s 743 mmHg 71%
    20:00 +30°C° 0 mm 5 m/s 744 mmHg 74%
    21:00 +29°C° 0 mm 4 m/s 744 mmHg 77%
    22:00 +28°C° 0 mm 4 m/s 745 mmHg 80%
    23:00 +28°C° 0 mm 4 m/s 745 mmHg 80%
    Arată mai mult